Voltar ao catálogo

TAURUS DEB

AtivoLEO
NORAD 25161·DEBRIS·🇺🇸 United States

Lançado Feb 10, 1998 de Vandenberg Space Force Base

Loading…

Próximas Passagens (próximas 24 horas)

TLE

AtualizadoSource: Space-Track

Época: Sep 14, 2026, 11:06 UTC

1 25161U 98007E   26257.46290253  .00000151  00000-0  11096-3 0  9999
2 25161 107.9868 255.2274 0059851 258.9500 263.8837 14.28355259486223

Acompanhe TAURUS DEB em tempo real com AllMySat

Download on the App Store